Regional Weather Roundup
Issued by NWS

Home | Current Version | Previous Version | Graphics & Text | Print | Product List | Glossary On
Versions: 1 2 3 4 5 6 7 8 9 10 11 12 13 14 15 16 17 18 19 20 21 22 23 24 25 26 27 28 29 30 31 32 33 34 35 36 37 38 39 40 41 42 43 44 45 46 47 48 49 50
000
ASUS43 KIND 181109
RWRIN

WEATHER ROUNDUP FOR INDIANA
NATIONAL WEATHER SERVICE INDIANAPOLIS IN
600 AM EST WED JAN 18 2017

NOTE: "FAIR" INDICATES FEW OR NO CLOUDS BELOW 12,000 FEET WITH NO
SIGNIFICANT WEATHER AND/OR OBSTRUCTIONS TO VISIBILITY.

* - STATION DOES NOT REPORT WEATHER SUCH AS PRECIPITATION OR FOG.

+ - STATION NOT QUALITY CONTROLLED BY THE NATIONAL WEATHER SERVICE.
    USE DATA WITH CAUTION...ESPECIALLY DEWPOINT AND RELATIVE
    HUMIDITY OBSERVATIONS.

INZ001>003-010>013-019-020-181200-
NORTHWEST INDIANA

CITY           SKY/WX    TMP DP  RH WIND       PRES   REMARKS
GARY /AIRPORT/ CLOUDY    36  34  93 W12G23    30.10R FOG
KNOX *+        CLOUDY    32  27  80 W10       30.09R WCI  24
LA PORTE +     CLOUDY    33  33  98 W9        30.09R FOG     WCI  25
MICHIGAN CITY+ CLOUDY    34  34 100 W10       30.09R FOG     WCI  26
MONTICELLO +   CLOUDY    33  32  94 W12       30.12R WCI  25
RENSSELAER +     N/A     34  34 100 W10       30.12R FOG     WCI  26
VALPARAISO     CLOUDY    35  34  96 W15       30.10R FOG     WCI  25

$$

LMZ046-743>745-181200-
SOUTHERN LAKE MICHIGAN

STATION/POSITION TIME  TEMP    WIND        PRES    WAVE
                       AIR SEA DIR/SP/G            HT
                 (UTC) (F)     (DEG/KT/KT) (MB)    (FT)
BURNS HARBOR     1040   34     250/ 14/ 16 1019.6R

$$

INZ004-005-014>016-021>024-181200-
NORTH CENTRAL INDIANA

CITY           SKY/WX    TMP DP  RH WIND       PRES   REMARKS
GOSHEN         CLOUDY    34  31  88 W12       30.07R FOG     WCI  25
LOGANSPORT +   CLOUDY    34  32  93 W9        30.12R WCI  26
PERU/GRISSOM   CLOUDY    35  35 100 W16       30.09R WCI  24
ROCHESTER +    CLOUDY    36  36 100 W8        30.10R FOG
SOUTH BEND     CLOUDY    34  34 100 W8        30.08R FOG     WCI  27
WARSAW +       CLOUDY    32  32 100 W10       30.08R FOG     WCI  24

$$

INZ006>009-017-018-025>027-181200-
NORTHEAST INDIANA

CITY           SKY/WX    TMP DP  RH WIND       PRES   REMARKS
ANGOLA *+      CLOUDY    34  34 100 W8        30.04R WCI  27
AUBURN +       CLOUDY    34  32  93 W8        30.07R FOG     WCI  27
FORT WAYNE     DRIZZLE   35  33  92 W15       30.08R FOG     WCI  25
HUNTINGTON +   CLOUDY    34  33  96 W14G22    30.09R FOG     WCI  24
KENDALLVILLE + CLOUDY    33  33 100 W10       30.06R FOG     WCI  25

$$

INZ028-029-035-036-043>045-051>053-181200-
WEST CENTRAL INDIANA

CITY           SKY/WX    TMP DP  RH WIND       PRES   REMARKS
CRAWFORDSVL +  CLOUDY    34  34 100 W18       30.14R WCI  23
GREENCASTLE +  CLOUDY    36  34  93 W7        30.15R
LAFAYETTE      CLOUDY    34  33  96 W9        30.14R WCI  27
TERRE HAUTE    CLOUDY    38  34  85 W14       30.17R

$$

INZ030>032-037>040-046>048-054>057-064-065-181200-
CENTRAL INDIANA

CITY           SKY/WX    TMP DP  RH WIND       PRES   REMARKS
CP ATTERBURY + CLOUDY    37  34  87 W6        30.16R
FRANKFORT +    CLOUDY    37  35  91 NW18      30.14S
GREENWOOD *+   CLOUDY    38  36  94 W8        30.15R
INDIANAPOLIS   CLOUDY    37  34  89 W14       30.14R
-EAGLE CREEK   CLOUDY    37  33  85 W16       30.13R
KOKOMO +       MIX PCPN  35  33  92 W16       30.12R WCI  25
MARION +       CLOUDY    34  34 100 W16G22    30.11S WCI  23
MT COMFORT *+  CLOUDY    36  34  93 W9        30.13R
SHELBYVILLE    CLOUDY    38  34  85 W9        30.13R
ZIONSVILLE +   CLOUDY    35  33  94 W9G21     30.13R WCI  27

$$

INZ033-034-041-042-049-050-058-059-181200-
EAST CENTRAL INDIANA

CITY           SKY/WX    TMP DP  RH WIND       PRES   REMARKS
MUNCIE         CLOUDY    37  34  89 W10       30.10R

$$

INZ060-061-067>069-081>083-085>088-181200-
SOUTHWEST INDIANA

CITY           SKY/WX    TMP DP  RH WIND       PRES   REMARKS
EVANSVILLE     CLOUDY    41  36  82 W8        30.21R
HUNTINGBURG *+ CLOUDY    39  36  87 W10       30.19R
WASHINGTON +   CLOUDY    38  37  93 W6        30.18S

$$

INZ062-063-066-070>080-084-089>092-181200-
SOUTH CENTRAL AND SOUTHEAST INDIANA

CITY           SKY/WX    TMP DP  RH WIND       PRES   REMARKS
BLOOMINGTON    CLOUDY    37  34  89 NW6       30.15R FOG
MADISON *+     CLOUDY    37  36  93 W7        30.17R
NORTH VERNON + CLOUDY   N/A N/A N/A NW6       30.16R
SEYMOUR +      CLOUDY    39  37  93 NW6       30.16R FOG

$$





USA.gov is the U.S. government's official web portal to all federal, state and local government web resources and services.